Regional Weather Roundup
Issued by NWS

Home | Current Version | Previous Version | Text Only | Print | Product List | Glossary On
Versions: 1 2 3 4 5 6 7 8 9 10 11 12 13 14 15 16 17 18 19 20 21 22 23 24 25 26 27 28 29 30 31 32 33 34 35 36 37 38 39 40 41 42 43 44 45 46 47 48 49 50
000
ASUS43 KTOP 231402
RWRKS

STATE WEATHER ROUNDUP
NATIONAL WEATHER SERVICE DODGE CITY KS
 FOR NATIONAL WEATHER SERVICE GOODLAND KS
800 AM CST THU FEB 23 2017

NOTE:  "FAIR" INDICATES FEW OR NO CLOUDS BELOW 12,000 FEET WITH NO
SIGNIFICANT WEATHER AND/OR OBSTRUCTIONS TO VISIBILITY.

KSZ001>006-013>018-027>032-041>047-231500-
...NORTHWEST KANSAS...

CITY           SKY/WX    TMP DP  RH WIND       PRES   REMARKS
GOODLAND       CLOUDY    36  34  92 E23G30    29.59S WCI  24
HAYS           CLOUDY    41  36  82 NE21      29.58F
HILL CITY      CLOUDY    39  35  86 NE21G29   29.64F WCI  29
RUSSELL        CLOUDY    44  37  76 NE14      29.61R
$$

KSZ061>065-074>080-084>089-231500-
...SOUTHWEST KANSAS...

CITY           SKY/WX    TMP DP  RH WIND       PRES   REMARKS
DODGE CITY     CLOUDY    47  37  68 SE15      29.52F
ELKHART          N/A     49  28  44 W10         N/A
GARDEN CITY    CLOUDY    42  31  64 NE13      29.54R
GREAT BEND     MOCLDY    49  36  61 E9G22     29.55
LIBERAL        PTCLDY    43  25  49 S6        29.55S
PRATT          CLOUDY    47  36  64 E13       29.56R
$$

KSZ066>073-081>083-090>101-231500-
...SOUTHEAST KANSAS...

CITY           SKY/WX    TMP DP  RH WIND       PRES   REMARKS
CHANUTE        CLOUDY    53  49  86 NE6       29.61S
COFFEYVILLE    SUNNY     50  49  96 E5        29.58F FOG
HUTCHINSON     PTCLDY    50  38  63 NE18G26   29.57F
MEDICINE LODGE   N/A     50  39  66 NE12      29.53F
NEWTON         MOCLDY    49  39  68 NE16G23   29.58F
PARSONS        SUNNY     55  52  89 VRB3      29.60S
WICHITA INTL   MOCLDY    52  41  66 E15       29.56F
WICHITA JABRA  PTCLDY    50  42  74 NE15      29.57F
WICHITA MCCONL PTCLDY    51  40  65 E13       29.56F
WINFIELD       CLEAR     48  42  80 NE7       29.56F
$$

KSZ007>012-019>026-033>040-048>060-102>105-231500-
...NORTHEAST KANSAS...

CITY           SKY/WX    TMP DP  RH WIND       PRES   REMARKS
CONCORDIA      CLOUDY    43  37  79 E20G25    29.64F
EMPORIA        MOCLDY    50  40  68 NE13      29.63R
LAWRENCE       PTSUNNY   51  40  65 NE12G21   29.68S
MANHATTAN      CLOUDY    50  38  63 E16       29.64F
OLATHE IND     CLOUDY    51  40  65 NE14G21   29.67R
OLATHE EXE     CLOUDY    50  41  71 NE14      29.65F
SALINA         CLOUDY    53  34  48 E26G37    29.55F
TOPEKA BILLARD MOCLDY    50  40  68 NE9       29.68R
TOPEKA FORBES  CLOUDY    51  38  60 NE10      29.67S
$$




USA.gov is the U.S. government's official web portal to all federal, state and local government web resources and services.